Time,TemperatureF,DewpointF,PressureIn,WindDirection,WindDirectionDegrees,WindSpeedMPH,WindSpeedGustMPH,Humidity,HourlyPrecipIn,Conditions,Clouds,dailyrainin,SoftwareType,DateUTC
2013-03-26 00:03:00,32.5,24.8,30.00,NW,315,0.0,5.0,73,0.00,,,-99.99,WeatherLink 5.7,2013-03-26 05:03:00,
2013-03-26 00:18:00,32.4,24.7,30.00,NNW,337,0.0,6.0,73,0.00,,,-99.99,WeatherLink 5.7,2013-03-26 05:18:00,
2013-03-26 00:33:00,32.4,24.7,30.01,NW,315,1.0,4.0,73,0.00,,,-99.99,WeatherLink 5.7,2013-03-26 05:33:00,
2013-03-26 00:48:00,32.2,24.8,30.01,NW,315,0.0,2.0,74,0.00,,,-99.99,WeatherLink 5.7,2013-03-26 05:48:00,
2013-03-26 01:03:00,32.1,24.7,30.01,NW,315,0.0,1.0,74,0.00,,,-99.99,WeatherLink 5.7,2013-03-26 06:03:00,
2013-03-26 01:18:00,32.2,24.5,30.01,WNW,292,0.0,3.0,73,0.00,,,-99.99,WeatherLink 5.7,2013-03-26 06:18:00,
2013-03-26 01:33:00,32.4,24.7,30.01,NNW,337,0.0,2.0,73,0.00,,,-99.99,WeatherLink 5.7,2013-03-26 06:33:00,
2013-03-26 01:48:00,32.2,24.2,30.01,NW,315,0.0,2.0,72,0.00,,,-99.99,WeatherLink 5.7,2013-03-26 06:48:00,
2013-03-26 02:03:00,32.2,24.2,30.01,WNW,292,0.0,3.0,72,0.00,,,-99.99,WeatherLink 5.7,2013-03-26 07:03:00,
2013-03-26 02:18:00,32.2,24.2,30.01,NW,315,0.0,3.0,72,0.00,,,-99.99,WeatherLink 5.7,2013-03-26 07:18:00,
2013-03-26 02:33:00,32.1,24.1,30.01,NW,315,0.0,3.0,72,0.00,,,-99.99,WeatherLink 5.7,2013-03-26 07:33:00,
2013-03-26 02:48:00,32.1,24.1,30.01,NW,315,0.0,3.0,72,0.00,,,-99.99,WeatherLink 5.7,2013-03-26 07:48:00,
2013-03-26 03:03:00,31.9,24.2,30.01,WNW,292,0.0,4.0,73,0.00,,,-99.99,WeatherLink 5.7,2013-03-26 08:03:00,
2013-03-26 03:18:00,31.8,24.1,30.01,NW,315,0.0,1.0,73,0.00,,,-99.99,WeatherLink 5.7,2013-03-26 08:18:00,
2013-03-26 03:33:00,31.8,24.5,30.02,NNW,337,1.0,3.0,74,0.00,,,-99.99,WeatherLink 5.7,2013-03-26 08:33:00,
2013-03-26 03:48:00,31.8,24.8,30.02,NNW,337,1.0,4.0,75,0.00,,,-99.99,WeatherLink 5.7,2013-03-26 08:48:00,
2013-03-26 04:03:00,31.8,24.8,30.02,NNW,337,0.0,3.0,75,0.00,,,-99.99,WeatherLink 5.7,2013-03-26 09:03:00,
2013-03-26 04:18:00,31.8,25.1,30.03,NNW,337,0.0,3.0,76,0.00,,,-99.99,WeatherLink 5.7,2013-03-26 09:18:00,
2013-03-26 04:33:00,31.6,24.9,30.03,NNW,337,1.0,3.0,76,0.00,,,-99.99,WeatherLink 5.7,2013-03-26 09:33:00,
2013-03-26 04:49:00,31.3,24.6,30.03,NNW,337,0.0,3.0,76,0.00,,,-99.99,WeatherLink 5.7,2013-03-26 09:49:00,
2013-03-26 05:03:00,31.2,24.5,30.04,NNW,337,0.0,3.0,76,0.00,,,-99.99,WeatherLink 5.7,2013-03-26 10:03:00,
2013-03-26 05:18:00,31.2,24.5,30.04,NNW,337,0.0,3.0,76,0.00,,,-99.99,WeatherLink 5.7,2013-03-26 10:18:00,
2013-03-26 05:33:00,31.0,24.3,30.04,NNW,337,0.0,3.0,76,0.00,,,-99.99,WeatherLink 5.7,2013-03-26 10:33:00,
2013-03-26 05:48:00,30.7,24.0,30.05,NW,315,0.0,2.0,76,0.00,,,-99.99,WeatherLink 5.7,2013-03-26 10:48:00,
2013-03-26 06:03:00,30.6,23.9,30.05,NW,315,0.0,3.0,76,0.00,,,-99.99,WeatherLink 5.7,2013-03-26 11:03:00,
2013-03-26 06:19:00,30.4,23.7,30.06,NW,315,0.0,1.0,76,0.00,,,-99.99,WeatherLink 5.7,2013-03-26 11:19:00,
2013-03-26 06:33:00,30.4,23.7,30.06,NW,315,0.0,2.0,76,0.00,,,-99.99,WeatherLink 5.7,2013-03-26 11:33:00,
2013-03-26 06:48:00,30.3,23.3,30.06,NW,315,1.0,5.0,75,0.00,,,-99.99,WeatherLink 5.7,2013-03-26 11:48:00,
2013-03-26 07:03:00,30.3,23.3,30.07,NNW,337,1.0,3.0,75,0.00,,,-99.99,WeatherLink 5.7,2013-03-26 12:03:00,
2013-03-26 07:18:00,30.1,23.4,30.08,NNW,337,2.0,4.0,76,0.00,,,-99.99,WeatherLink 5.7,2013-03-26 12:18:00,
2013-03-26 07:33:00,30.3,23.3,30.08,NNW,337,2.0,5.0,75,0.00,,,-99.99,WeatherLink 5.7,2013-03-26 12:33:00,
2013-03-26 07:48:00,30.4,23.4,30.08,NNW,337,2.0,4.0,75,0.00,,,-99.99,WeatherLink 5.7,2013-03-26 12:48:00,
2013-03-26 08:03:00,30.7,23.4,30.08,NNW,337,1.0,4.0,74,0.00,,,-99.99,WeatherLink 5.7,2013-03-26 13:03:00,
2013-03-26 08:18:00,31.0,23.4,30.09,NNW,337,0.0,6.0,73,0.00,,,-99.99,WeatherLink 5.7,2013-03-26 13:18:00,
2013-03-26 08:33:00,31.5,23.2,30.09,NNW,337,0.0,3.0,71,0.00,,,-99.99,WeatherLink 5.7,2013-03-26 13:33:00,
2013-03-26 08:48:00,31.9,23.2,30.09,NNW,337,2.0,6.0,70,0.00,,,-99.99,WeatherLink 5.7,2013-03-26 13:48:00,
2013-03-26 09:03:00,32.5,23.1,30.10,NNW,337,2.0,6.0,68,0.00,,,-99.99,WeatherLink 5.7,2013-03-26 14:03:00,
2013-03-26 09:18:00,32.4,23.0,30.10,North,0,2.0,9.0,68,0.00,,,-99.99,WeatherLink 5.7,2013-03-26 14:18:00,
2013-03-26 09:33:00,32.8,23.4,30.10,NNW,337,4.0,11.0,68,0.00,,,-99.99,WeatherLink 5.7,2013-03-26 14:33:00,
2013-03-26 09:48:00,32.9,23.1,30.11,NNW,337,4.0,8.0,67,0.00,,,-99.99,WeatherLink 5.7,2013-03-26 14:48:00,
2013-03-26 10:03:00,33.8,23.3,30.11,NNW,337,3.0,6.0,65,0.00,,,-99.99,WeatherLink 5.7,2013-03-26 15:03:00,
2013-03-26 10:18:00,34.9,23.2,30.11,NNW,337,3.0,10.0,62,0.00,,,-99.99,WeatherLink 5.7,2013-03-26 15:18:00,
2013-03-26 10:33:00,35.0,22.9,30.11,NNW,337,3.0,6.0,61,0.00,,,-99.99,WeatherLink 5.7,2013-03-26 15:33:00,
2013-03-26 10:48:00,35.6,23.5,30.11,WNW,292,2.0,6.0,61,0.00,,,-99.99,WeatherLink 5.7,2013-03-26 15:48:00,
2013-03-26 11:03:00,35.9,22.5,30.11,NNW,337,3.0,7.0,58,0.00,,,-99.99,WeatherLink 5.7,2013-03-26 16:03:00,
2013-03-26 11:19:00,36.3,22.5,30.11,NNW,337,2.0,6.0,57,0.00,,,-99.99,WeatherLink 5.7,2013-03-26 16:19:00,
2013-03-26 11:33:00,36.3,22.5,30.11,NNW,337,3.0,7.0,57,0.00,,,-99.99,WeatherLink 5.7,2013-03-26 16:33:00,
2013-03-26 11:48:00,36.9,23.1,30.11,NNW,337,3.0,8.0,57,0.00,,,-99.99,WeatherLink 5.7,2013-03-26 16:48:00,
2013-03-26 12:03:00,37.0,23.2,30.11,NNW,337,2.0,6.0,57,0.00,,,-99.99,WeatherLink 5.7,2013-03-26 17:03:00,
2013-03-26 12:19:00,37.5,22.3,30.11,WNW,292,3.0,10.0,54,0.00,,,-99.99,WeatherLink 5.7,2013-03-26 17:19:00,
2013-03-26 12:33:00,37.3,22.2,30.11,WNW,292,2.0,7.0,54,0.00,,,-99.99,WeatherLink 5.7,2013-03-26 17:33:00,
2013-03-26 12:48:00,37.6,21.5,30.11,WNW,292,3.0,9.0,52,0.00,,,-99.99,WeatherLink 5.7,2013-03-26 17:48:00,
2013-03-26 13:03:00,38.0,21.9,30.11,WNW,292,3.0,10.0,52,0.00,,,-99.99,WeatherLink 5.7,2013-03-26 18:03:00,
2013-03-26 13:18:00,38.6,22.5,30.11,NW,315,3.0,10.0,52,0.00,,,-99.99,WeatherLink 5.7,2013-03-26 18:18:00,
2013-03-26 13:34:00,38.8,23.6,30.11,NW,315,3.0,7.0,54,0.00,,,-99.99,WeatherLink 5.7,2013-03-26 18:34:00,
2013-03-26 13:48:00,39.1,24.3,30.11,NNW,337,2.0,5.0,55,0.00,,,-99.99,WeatherLink 5.7,2013-03-26 18:48:00,
2013-03-26 14:03:00,39.2,23.5,30.10,NNW,337,3.0,6.0,53,0.00,,,-99.99,WeatherLink 5.7,2013-03-26 19:03:00,
2013-03-26 14:18:00,39.2,23.5,30.10,NNW,337,3.0,9.0,53,0.00,,,-99.99,WeatherLink 5.7,2013-03-26 19:18:00,
2013-03-26 14:33:00,39.5,23.3,30.10,NNW,337,2.0,6.0,52,0.00,,,-99.99,WeatherLink 5.7,2013-03-26 19:33:00,
2013-03-26 14:48:00,39.5,23.3,30.10,NNW,337,3.0,11.0,52,0.00,,,-99.99,WeatherLink 5.7,2013-03-26 19:48:00,
2013-03-26 15:04:00,39.8,24.0,30.10,NNW,337,2.0,10.0,53,0.00,,,-99.99,WeatherLink 5.7,2013-03-26 20:04:00,
2013-03-26 15:18:00,39.9,23.7,30.10,NNW,337,3.0,7.0,52,0.00,,,-99.99,WeatherLink 5.7,2013-03-26 20:18:00,
2013-03-26 15:33:00,39.8,24.0,30.10,NNW,337,3.0,11.0,53,0.00,,,-99.99,WeatherLink 5.7,2013-03-26 20:33:00,
2013-03-26 15:48:00,39.3,24.0,30.10,NW,315,3.0,8.0,54,0.00,,,-99.99,WeatherLink 5.7,2013-03-26 20:48:00,
2013-03-26 16:04:00,40.3,24.1,30.10,NNW,337,2.0,7.0,52,0.00,,,-99.99,WeatherLink 5.7,2013-03-26 21:04:00,
2013-03-26 16:18:00,39.5,24.7,30.10,NNW,337,2.0,6.0,55,0.00,,,-99.99,WeatherLink 5.7,2013-03-26 21:18:00,
2013-03-26 16:33:00,39.3,25.3,30.10,NNW,337,2.0,7.0,57,0.00,,,-99.99,WeatherLink 5.7,2013-03-26 21:33:00,
2013-03-26 16:48:00,38.5,25.4,30.10,NNW,337,2.0,5.0,59,0.00,,,-99.99,WeatherLink 5.7,2013-03-26 21:48:00,
2013-03-26 17:03:00,37.8,25.9,30.10,NNW,337,3.0,6.0,62,0.00,,,-99.99,WeatherLink 5.7,2013-03-26 22:03:00,
2013-03-26 17:18:00,37.5,25.7,30.10,North,0,1.0,4.0,62,0.00,,,-99.99,WeatherLink 5.7,2013-03-26 22:18:00,
2013-03-26 17:33:00,37.2,26.1,30.11,NNW,337,0.0,3.0,64,0.00,,,-99.99,WeatherLink 5.7,2013-03-26 22:33:00,
2013-03-26 17:48:00,37.0,25.9,30.11,NNW,337,0.0,3.0,64,0.00,,,-99.99,WeatherLink 5.7,2013-03-26 22:48:00,
2013-03-26 18:03:00,37.2,26.5,30.12,NNW,337,0.0,1.0,65,0.00,,,-99.99,WeatherLink 5.7,2013-03-26 23:03:00,
2013-03-26 18:18:00,37.2,26.9,30.12,North,-999,0.0,0.0,66,0.00,,,-99.99,WeatherLink 5.7,2013-03-26 23:18:00,
2013-03-26 18:33:00,36.9,26.6,30.12,NNW,337,0.0,1.0,66,0.00,,,-99.99,WeatherLink 5.7,2013-03-26 23:33:00,
2013-03-26 18:48:00,36.6,26.7,30.12,North,-999,0.0,0.0,67,0.00,,,-99.99,WeatherLink 5.7,2013-03-26 23:48:00,
2013-03-26 19:03:00,36.5,26.6,30.13,North,-999,0.0,0.0,67,0.00,,,-99.99,WeatherLink 5.7,2013-03-27 00:03:00,
2013-03-26 19:18:00,36.3,26.7,30.13,North,-999,0.0,0.0,68,0.00,,,-99.99,WeatherLink 5.7,2013-03-27 00:18:00,
2013-03-26 19:33:00,36.0,26.5,30.13,NNW,337,0.0,1.0,68,0.00,,,-99.99,WeatherLink 5.7,2013-03-27 00:33:00,
2013-03-26 19:48:00,36.2,25.9,30.14,NNW,337,0.0,1.0,66,0.00,,,-99.99,WeatherLink 5.7,2013-03-27 00:48:00,
2013-03-26 20:03:00,36.2,25.6,30.14,WNW,292,0.0,2.0,65,0.00,,,-99.99,WeatherLink 5.7,2013-03-27 01:03:00,
2013-03-26 20:19:00,36.2,25.6,30.14,West,270,0.0,5.0,65,0.00,,,-99.99,WeatherLink 5.7,2013-03-27 01:19:00,
2013-03-26 20:33:00,36.0,25.0,30.14,WNW,292,1.0,5.0,64,0.00,,,-99.99,WeatherLink 5.7,2013-03-27 01:33:00,
2013-03-26 20:48:00,35.8,24.8,30.14,NW,315,0.0,5.0,64,0.00,,,-99.99,WeatherLink 5.7,2013-03-27 01:48:00,
2013-03-26 21:04:00,35.6,24.6,30.14,WNW,292,0.0,5.0,64,0.00,,,-99.99,WeatherLink 5.7,2013-03-27 02:04:00,
2013-03-26 21:19:00,35.2,24.6,30.15,West,270,0.0,3.0,65,0.00,,,-99.99,WeatherLink 5.7,2013-03-27 02:19:00,
2013-03-26 21:33:00,35.0,24.4,30.15,NW,315,0.0,3.0,65,0.00,,,-99.99,WeatherLink 5.7,2013-03-27 02:33:00,
2013-03-26 21:48:00,34.9,24.7,30.15,NW,315,0.0,3.0,66,0.00,,,-99.99,WeatherLink 5.7,2013-03-27 02:48:00,
2013-03-26 22:03:00,34.7,24.9,30.15,NW,315,0.0,6.0,67,0.00,,,-99.99,WeatherLink 5.7,2013-03-27 03:03:00,
2013-03-26 22:18:00,34.6,25.1,30.15,WNW,292,0.0,4.0,68,0.00,,,-99.99,WeatherLink 5.7,2013-03-27 03:18:00,
2013-03-26 22:33:00,34.4,24.9,30.15,WNW,292,0.0,4.0,68,0.00,,,-99.99,WeatherLink 5.7,2013-03-27 03:33:00,
2013-03-26 22:48:00,34.3,24.8,30.15,WNW,292,0.0,4.0,68,0.00,,,-99.99,WeatherLink 5.7,2013-03-27 03:48:00,
2013-03-26 23:04:00,34.3,24.8,30.16,NW,315,0.0,3.0,68,0.00,,,-99.99,WeatherLink 5.7,2013-03-27 04:04:00,
2013-03-26 23:19:00,34.1,25.0,30.16,NW,315,0.0,2.0,69,0.00,,,-99.99,WeatherLink 5.7,2013-03-27 04:19:00,
2013-03-26 23:33:00,34.0,24.9,30.16,NW,315,0.0,1.0,69,0.00,,,-99.99,WeatherLink 5.7,2013-03-27 04:33:00,
2013-03-26 23:48:00,33.8,24.7,30.16,NW,315,0.0,3.0,69,0.00,,,-99.99,WeatherLink 5.7,2013-03-27 04:48:00,